Track STARLINK-3668 now! 10-day predictions STARLINK-3668 is classified as:
1 52002U 22025AY 22181.91667824 -.00046879 00000-0 -29422-2 0 9994 2 52002 53.2156 309.4944 0001551 70.4657 358.4729 15.08895022 1309